Content
SEND FEEDBACK

Daily
Averages
Monthly
Summary
United States of America

ROCK HILL, NEW YORK


Home > North America > United States > New York
Elevation: 1260 feet     Latitude: 41 35N     Longitude: 074 37W

WEATHER
 
SELECT A DAY
Number of Records: 443,773;   Date Range: 1/1/95 - 8/30/14
 
SHARE

PRINT THIS DATA

[ ← Previous Day ]
WEATHER ALMANAC - FEBRUARY 12, 2014
[ Next Day → ]
[ °C ]   °F
Weather ElementAverageHighLow
Temperature8.9 °F21.2 °F (1:15 pm)-7.6 °F (6:15 am)
Dewpoint-3.6 °F3.2 °F (12:55 pm)-18.4 °F (6:15 am)
Humidity59.1 %100 % (6:35 am)36 % (2:55 pm)
Barometer30.37 in30.45 in (8:55 am)30.24 in (11:55 pm)
Wind Speed4.4 mph12.7 mph (4:15 pm)
Weather ElementAverage
Visibility10 mi
Wind DirectionESE (107.7 °)

Weather ElementTotal
Precipitation---
Heating Degree Days58.2 (Base 65)
Averaged from 71 records on February 12, 2014
WEATHER CONDITIONS BREAKOUT
WIND DIRECTION BREAKOUT
WEATHER BY HOUR - FEBRUARY 12, 2014
[ °C ]   °F
Local TimeTemperatureDewpointHumidityBarometerVisibilityWind DirectionWind SpeedGust SpeedPrecipitationEventsConditions
12:35 AM5.0 °F-2.2 °F72 %30.39 in10.0 miNW (320°)6.9 mphClear
12:55 AM1.4 °F-7.6 °F66 %30.39 in10.0 miWNW (300°)3.5 mphClear
1:15 AM5.0 °F-0.4 °F78 %30.39 in10.0 miNW (320°)4.6 mphClear
1:35 AM3.2 °F-5.8 °F66 %30.39 in10.0 miNW (310°)3.5 mphClear
1:55 AM1.4 °F-7.6 °F66 %30.40 in10.0 miCalmClear
2:15 AM1.4 °F-4.0 °F78 %30.39 in10.0 miCalmClear
2:35 AM3.2 °F-0.4 °F85 %30.38 in10.0 miCalmClear
2:55 AM3.2 °F-2.2 °F78 %30.39 in10.0 miWNW (300°)5.8 mphClear
3:15 AM3.2 °F-4.0 °F72 %30.38 in10.0 miWNW (300°)5.8 mphClear
3:35 AM1.4 °F-5.8 °F72 %30.40 in10.0 miWNW (300°)5.8 mphClear
3:55 AM1.4 °F-2.2 °F85 %30.40 in10.0 miWNW (300°)3.5 mphClear
4:15 AM1.4 °F-7.6 °F66 %30.40 in10.0 miWest (270°)3.5 mphClear
4:35 AM3.2 °F-0.4 °F85 %30.38 in10.0 miNW (310°)3.5 mphClear
4:55 AM-2.2 °F-16.6 °F50 %30.39 in10.0 miCalmClear
5:15 AM-0.4 °F-4.0 °F85 %30.40 in10.0 miCalmClear
5:35 AM-0.4 °F-7.6 °F72 %30.40 in10.0 miWSW (240°)3.5 mphClear
5:55 AM-5.8 °F-11.2 °F77 %30.39 in10.0 miCalmClear
6:15 AM-7.6 °F-18.4 °F59 %30.38 in10.0 miNNE (30°)6.9 mphClear
6:35 AM-5.8 °F-5.8 °F100 %30.38 in10.0 miNNE (20°)4.6 mphClear
6:55 AM-5.8 °F-13.0 °F71 %30.40 in10.0 miCalmClear
7:15 AM-5.8 °F-11.2 °F77 %30.43 in10.0 miCalmClear
7:35 AM-5.8 °F-7.6 °F92 %30.44 in10.0 miCalmClear
7:55 AM-5.8 °F-11.2 °F77 %30.44 in10.0 miCalmClear
8:15 AM-2.2 °F-5.8 °F85 %30.44 in10.0 miCalmClear
8:35 AM-2.2 °F-9.4 °F71 %30.43 in10.0 miCalmClear
8:55 AM-0.4 °F-5.8 °F78 %30.45 in10.0 miCalmClear
9:15 AM-0.4 °F-7.6 °F72 %30.43 in10.0 miCalmClear
9:35 AM3.2 °F-0.4 °F85 %30.43 in10.0 miCalmClear
9:55 AM8.6 °F-0.4 °F67 %30.43 in10.0 miCalmClear
10:15 AM8.6 °F-2.2 °F62 %30.43 in10.0 miCalmClear
10:35 AM12.2 °F1.4 °F62 %30.43 in10.0 miSouth (170°)4.6 mphClear
10:55 AM14.0 °F-0.4 °F53 %30.44 in10.0 miSouth (170°)3.5 mphClear
11:15 AM15.8 °F1.4 °F53 %30.44 in10.0 miCalmClear
11:35 AM17.6 °F1.4 °F49 %30.44 in10.0 miCalmClear
11:55 AM17.6 °F1.4 °F49 %30.44 in10.0 miSouth (170°)5.8 mphClear
12:15 PM17.6 °F1.4 °F49 %30.43 in10.0 miSouth (170°)4.6 mphClear
12:35 PM17.6 °F1.4 °F49 %30.42 in10.0 miESE (120°)4.6 mphClear
12:55 PM19.4 °F3.2 °F49 %30.40 in10.0 miESE (120°)3.5 mphClear
1:15 PM21.2 °F1.4 °F42 %30.39 in10.0 miCalmClear
1:35 PM19.4 °F-0.4 °F42 %30.36 in10.0 miSE (130°)5.8 mphClear
1:55 PM19.4 °F-2.2 °F39 %30.34 in10.0 miSE (130°)9.2 mphClear
2:15 PM19.4 °F-2.2 °F39 %30.33 in10.0 miSE (140°)6.9 mphClear
2:35 PM21.2 °F-0.4 °F39 %30.34 in10.0 miESE (120°)5.8 mphClear
2:55 PM21.2 °F-2.2 °F36 %30.34 in10.0 miSE (140°)5.8 mphClear
3:15 PM21.2 °F-2.2 °F36 %30.35 in10.0 miSE (140°)9.2 mphClear
3:35 PM19.4 °F-2.2 °F39 %30.35 in10.0 miSSE (150°)6.9 mphClear
3:55 PM19.4 °F-2.2 °F39 %30.34 in10.0 miSE (140°)9.2 mphClear
4:15 PM17.6 °F-4.0 °F38 %30.33 in10.0 miSSE (150°)12.7 mphClear
4:35 PM17.6 °F-2.2 °F42 %30.34 in10.0 miSE (130°)12.7 mphClear
4:55 PM15.8 °F-2.2 °F45 %30.34 in10.0 miSE (130°)8.1 mphClear
5:15 PM15.8 °F-2.2 °F45 %30.34 in10.0 miSE (130°)10.4 mphClear
5:35 PM14.0 °F-5.8 °F41 %30.34 in10.0 miSE (130°)8.1 mphClear
5:55 PM15.8 °F-2.2 °F45 %30.33 in10.0 miESE (110°)4.6 mphClear
6:15 PM14.0 °F-4.0 °F45 %30.33 in10.0 miESE (110°)5.8 mphClear
6:35 PM12.2 °F-4.0 °F48 %30.32 in10.0 miEast (90°)4.6 mphClear
6:55 PM12.2 °F-4.0 °F48 %30.32 in10.0 miEast (90°)5.8 mphClear
7:15 PM12.2 °F-4.0 °F48 %30.31 in10.0 miEast (90°)4.6 mphClear
7:35 PM12.2 °F-5.8 °F45 %30.29 in10.0 miEast (90°)5.8 mphClear
7:55 PM12.2 °F-4.0 °F48 %30.31 in10.0 miEast (100°)8.1 mphClear
8:15 PM12.2 °F-5.8 °F45 %30.30 in10.0 miESE (110°)6.9 mphClear
8:35 PM12.2 °F-2.2 °F53 %30.30 in10.0 miEast (100°)5.8 mphClear
8:55 PM12.2 °F-2.2 °F53 %30.31 in10.0 miESE (110°)6.9 mphClear
9:15 PM12.2 °F-4.0 °F48 %30.30 in10.0 miEast (100°)5.8 mphClear
9:35 PM10.4 °F-2.2 °F57 %30.29 in10.0 miEast (80°)6.9 mphClear
9:55 PM12.2 °F-2.2 °F53 %30.28 in10.0 miEast (90°)8.1 mphClear
10:15 PM12.2 °F-2.2 °F53 %30.27 in10.0 miENE (70°)6.9 mphClear
10:35 PM12.2 °F-2.2 °F53 %30.26 in10.0 miENE (60°)8.1 mphClear
10:55 PM12.2 °F-2.2 °F53 %30.26 in10.0 miENE (60°)4.6 mphClear
11:15 PM12.2 °F-0.4 °F57 %30.25 in10.0 miENE (70°)3.5 mphMostly Cloudy
11:35 PM12.2 °F-0.4 °F57 %30.25 in10.0 miENE (60°)3.5 mphOvercast
11:55 PM12.2 °F1.4 °F62 %30.24 in10.0 miENE (60°)5.8 mphOvercast
Hourly data recorded from KMSV, located miles away from Rock Hill, New York







STORIES FROM OUR PARTNERS